Regional Weather Roundup
Issued by NWS

Home | Current Version | Previous Version | Text Only | Print | Product List | Glossary On
Versions: 1 2 3 4 5 6 7 8 9 10 11 12 13 14 15 16 17 18 19 20 21 22 23 24 25 26 27 28 29 30 31 32 33 34 35 36 37 38 39 40 41 42 43 44 45 46 47 48 49 50
000
ASMX46 KSGX 301911
RWRMX

MEXICAN WEATHER ROUNDUP
NATIONAL WEATHER SERVICE SAN DIEGO CA
1200 PM PDT SAT JUL 30 2016

BAJA CALIFORNIA

CITY           SKY/WX    TMP DP  RH WIND       PRES   REMARKS
ENSENADA NW      N/A     73  32  22 W15       29.85S
LA PAZ         PTSUNNY   91  59  33 SE6       29.89F
LORETO         PTSUNNY   86  75  70 SE6       29.84F HX  95
MEXICALI       PTSUNNY   93  68  43 S21       29.83R HX  97
S.J. DEL CABO  MOSUNNY   91  63  38 E16       29.89F
TIJUANA        SUNNY     81  61  50 W8        29.90F

NORTHWESTERN MEXICO

CITY           SKY/WX    TMP DP  RH WIND       PRES   REMARKS
CHIHUAHUA      PTSUNNY   79  57  47 E8        30.13F
CULIACAN       PTSUNNY   86  68  54 N5        29.91F
GUAYMAS        PTSUNNY   88  79  74 CALM      29.84F HX 102
HERMOSILLO     PTSUNNY   90  73  58 SE8       29.92F HX  98
JUAREZ         MOSUNNY   88  59  37 E9        30.00F
LOS MOCHIS     CLOUDY    81  73  78 SE9       29.91F
OBREGON        PTSUNNY   86  72  62 S15       29.87F

NORTHEASTERN MEXICO

CITY           SKY/WX    TMP DP  RH WIND       PRES   REMARKS
MATAMOROS      PTSUNNY   93  73  52 SE15      29.98F HX 102
MONCLOVA         N/A    N/A N/A N/A MISG        N/A
MONTERREY      PTSUNNY   91  64  40 E9        29.97F
NUEVO LAREDO   SUNNY     93  68  43 SE9       29.97F HX  97
PIEDRAS NEGRAS MOSUNNY   93  72  49 SE14      30.00F HX 100
REYNOSA        MOSUNNY   95  64  36 SE12G23   29.95F HX  97
SALTILLO       PTSUNNY   88  59  37 NE15      30.21F
TORREON        PTSUNNY   82  64  54 CALM      30.11F
VICTORIA       MOSUNNY   93  63  36 SE15      29.99F

WESTERN MEXICO

CITY           SKY/WX    TMP DP  RH WIND       PRES   REMARKS
AGUASCALIENTES PTSUNNY   75  54  46 SW3       30.27F
COLIMA         MOSUNNY   84  72  65 CALM      29.98F
DURANGO        PTSUNNY   73  57  56 N2        30.24F
GUADALAJARA    PTSUNNY   75  61  60 N8        30.19F
MANZANILLO     SUNNY     88  75  66 S16       29.82S HX  97
MAZATLAN       MOSUNNY   91  79  66 W8        29.88F HX 107
PTO. VALLARTA  MOSUNNY   88  77  70 S12       29.86S HX 100
TEPIC          MOSUNNY   86  68  54 S2        30.04F
URUAPAN        MOSUNNY   73  63  68 CALM      30.17
ZACATECAS      PTSUNNY   72  54  53 E6        30.30F

CENTRAL MEXICO

CITY           SKY/WX    TMP DP  RH WIND       PRES   REMARKS
CUERNAVACA     PTSUNNY   79  59  50 CALM      30.13F
LEON           PTSUNNY   75  57  53 CALM      30.29F
MEXICO CITY    PTSUNNY   70  50  49 E3        30.34F
MORELIA        MOSUNNY   73  59  60 NW2       30.24F
POZA RICA      CLOUDY    77  75  94 S5        30.07F
PUEBLA         PTSUNNY   72  48  43 N3        30.32F
QUERETARO      PTSUNNY   75  59  57 SE6       30.31F
S. LUIS POTOSI MOSUNNY   75  46  35 CALM      30.27F
TAMPICO        PTSUNNY   84  75  74 CALM      30.00F
TOLUCA         PTSUNNY   70  50  49 SW10      30.39F
VERACRUZ       PTSUNNY   81  75  83 N8        29.98F

SOUTHERN MEXICO

CITY           SKY/WX    TMP DP  RH WIND       PRES   REMARKS
ACAPULCO       SUNNY     88  77  70 SE6       29.86S HX 100
B. DE HUATULCO CLOUDY    86  73  66 CALM      29.94F
MINATITLAN     PTSUNNY   84  68  58 N12       29.89S
OAXACA         CLOUDY    77  52  41 SW3       30.21F
PTO. ESCONDIDO MOSUNNY   84  75  74 S10       29.99R
TAPACHULA      PTSUNNY   88  75  66 CALM      29.85F HX  97
TUX. GUTIERREZ MOSUNNY   86  64  48 E6        29.94F
VILLAHERMOSA   PTSUNNY   90  75  62 SE8       29.94F HX 100
ZIHUATANEJO    SUNNY     90  75  62 S3        29.86F HX 100

YUCATAN PENINSULA

CITY           SKY/WX    TMP DP  RH WIND       PRES   REMARKS
CAMPECHE       MOSUNNY   91  75  59 E12G23    29.94F HX 102
CANCUN         MOSUNNY   90  75  62 NE14      30.01F HX 100
CHETUMAL       MOSUNNY   90  75  62 E15       29.98F HX 100
C. DEL CARMEN  MOSUNNY   88  75  66 SE12      29.95F HX  97
COZUMEL        MOSUNNY   86  75  70 NE15      30.01F HX  95
MERIDA         PTSUNNY   93  70  46 E9        29.94F HX  99

$$





USA.gov is the U.S. government's official web portal to all federal, state and local government web resources and services.